BANDAR DOMINO QQ
BandarQ

Jackpot

Texas Poker Multi Jackpot System

Kini Telah hadir Jackpot SUPER ROYAL FLUSH

Kini Telah hadir Jackpot 2000 (khusus table VIP keatas).

Ikutilah global jackpot yang tersedia di system kami, dengan system jackpot terbaru dan pertama di indonesia, anda dapat membeli jackpot dengan harga 100 rupiah saja dan menangkan hadiahnya hingga puluhan juta rupiah.

Jackpot bukanlah suatu keharusan untuk dibeli, namun kami memberikan suatu fitur tambahan untuk member tercinta dari www.dominoqiu.net.

Terdapat tiga pilihan harga jackpot yang bisa anda beli yaitu :100,500,1000 dan 2000(khusus table VIP Keatas) rupiah.

Hadiah dari Multi jackpot system www.dominoqiu.net

  1. full house x 10 harga jackpot yang anda beli.
      (contoh:anda membeli 1000 maka:1000 X10 = 10.000)
  2. four of kind x 250 harga jackpot yang anda beli
      (contoh:anda membeli 1000 maka:1000 X250 = 250.000)
  3. Straight flush x 1200
      (contoh:anda membeli 1000 maka:1000 X1200 = 1.200.000)
  4. Royal flush x 10000 harga jackpot yang anda beli
      (contoh:anda membeli 1000 maka:1000 X10000 = 10.000.000)
  5. SUPER ROYAL FLUSH x 30000 harga jackpot yang anda beli
      (contoh:anda membeli 1000 maka:1000 X30000 = 30.000.000)

Kondisi kartu

  1. full house adalah kondisi kartu dimana kartu anda dan kartu tengah dengan total 7 kartu bisa mendapatkan nilai 5 kartu dengan kombinasi 1 tris(three of kind) dan 1 pair, contoh 3 kartu 10 dan 2 kartu 5
  2. Four of kind adalah kondisi kartu dimana kartu anda dan kartu tengah dengan total 7 kartu bisa mendapatkan nilai 5 kartu dengan kombinasi 4 kartu yang sama jumlah dan 1 kartu apapun juga contoh anda mendapatkan 4 buah kartu angka 3 dan 1 kartu apapun.
  3. Staright flush adalah kondisi kartu dimana kartu anda dan kartu tengah dengan total 7 kartu bisa mendapatkan nilai 5 kartu dengan kombinasi seri / staright dengan kembang yang sama contoh : urutan kartu dari angka 5, 6, 7, 8 , 9 10 dengan kembang yg sama misalnya as hati
  4. Royal flush adalah kondisi kartu dimana kartu anda dan kartu tengah dengan total 7 kartu bisa mendapatkan nilai 5 kartu dengan kombinasi seri / staright dengan kembang yang sama tetapi kartu tersebut haruslah dimulai dari 10. contoh 10, Queen, Jack, King dan aces dengan kembang yang sama
  5. Super Royal flush adalah kondisi kartu dimana Kedua kartu anda digabung dengan 3 kartu pertama meja haruslah royal flush. contoh kartu anda 10,Queen kembang sama dan 3 kartu pertama meja adalah Jack, King dan aces dengan kembang yang sama

Demikian adalah penjelasan dari Multi Jackpot www.dominoqiu.net terima kasih dan selamat bermain salam hoki dari kami

Texas Poker Jackpot Winner

TOP SUPER ROYAL FLUSH
No.TanggalNamaPriceWin
130/04 12:48EB_BOYSuper Royal flush3,000,000
230/04 09:31DANTHA4Super Royal flush3,000,000
330/04 06:24RIFAN985Super Royal flush3,000,000
430/04 05:36HAFIZH78Super Royal flush15,000,000
530/04 05:11MIIYABI69Super Royal flush15,000,000
TOP ROYAL FLUSH
No.TanggalNamaPriceWin
130/04 20:55TONGKOSRoyal flush1,000,000
230/04 20:49KAMPRETINRoyal flush5,000,000
330/04 20:45DAMEH30Royal flush1,000,000
430/04 20:40UPAH_WDRoyal flush5,000,000
530/04 20:38AGUSS55Royal flush5,000,000
TOP STRAIGHT FLUSH
No.TanggalNamaPriceWin
130/04 21:37RIEARIUStraight Flush120,000
230/04 21:36ADEL4Straight Flush120,000
330/04 21:35RADZA99Straight Flush1,200,000
430/04 21:34A0996BC2Straight Flush120,000
530/04 21:32MAXX55Straight Flush120,000
LATEST JACKPOT
No.TanggalNamaPriceWin
130/04 21:37RIEARIUStraight Flush120,000
230/04 21:37PEJUSISAFull House1,000
330/04 21:37YYN1Full House5,000
430/04 21:37PRIME100Full House10,000
530/04 21:37GIALOFull House5,000
630/04 21:37LANJI88Full House5,000
730/04 21:37SNIPER81Full House1,000
830/04 21:37STEV080866Full House10,000
930/04 21:37SAVANDYFull House10,000
1030/04 21:37DEFRAN22Full House10,000
1130/04 21:37DENVIO28Full House5,000
1230/04 21:37DRAGONEASFull House5,000
1330/04 21:37ADHDYTFull House5,000
1430/04 21:37CASYE23Full House1,000
1530/04 21:37BKLROPFWZRFull House5,000
1630/04 21:36BOY0022Full House1,000
1730/04 21:36BULEEE85Full House20,000
1830/04 21:36PARTYWIFull House10,000
1930/04 21:36DAKJELAZZFull House5,000
2030/04 21:36GW8NVY8LDWFull House10,000
2130/04 21:36MOKSMOKSFull House5,000
2230/04 21:36ADEL4Straight Flush120,000
2330/04 21:36ONGIS16Full House5,000
2430/04 21:36HIKMAH771Full House5,000
2530/04 21:36CROTLAHFour Of A Kind125,000
2630/04 21:36AL1_______Full House10,000
2730/04 21:36WWW1011Full House5,000
2830/04 21:36SUARA3232Full House1,000
2930/04 21:36NDR4NY33ZFull House1,000
3030/04 21:36TARSOR21Four Of A Kind125,000
3130/04 21:36HASTIY88Full House5,000
3230/04 21:36AA61E3A2Full House1,000
3330/04 21:36EYOTA01Full House10,000
3430/04 21:36TIMBUL34Full House5,000
3530/04 21:36KAMIDUNFull House10,000
3630/04 21:36JACOB00Full House5,000
3730/04 21:36GOMAY83Full House10,000
3830/04 21:36FE37MIWT8HFull House5,000
3930/04 21:36M3ZHSOG6H5Full House1,000
4030/04 21:36BA377049Full House1,000
4130/04 21:36AB531747Four Of A Kind25,000
4230/04 21:36KOMSEKOFull House5,000
4330/04 21:36SIAPORFull House1,000
4430/04 21:36AL4D1N4Full House1,000
4530/04 21:36EKQQJDSSEPFull House10,000
4630/04 21:36SACUYFull House5,000
4730/04 21:36ZONY98Full House5,000
4830/04 21:36NGOBELVITAFull House10,000
4930/04 21:36JEBENG123Full House1,000
5030/04 21:36OMJP2JTFull House5,000

Domino Multi Jackpot System

Ikutilah global jackpot yang tersedia di system kami, dengan system jackpot terbaru dan pertama di indonesia, anda dapat membeli jackpot dengan harga 100 rupiah saja dan menangkan hadiahnya hingga puluhan juta rupiah.

Jackpot bukanlah suatu keharusan untuk dibeli, namun kami memberikan suatu fitur tambahan untuk member tercinta dari www.dominoqiu.net.

Terdapat tiga pilihan harga jackpot yang bisa anda beli yaitu :100,500 dan 1000 rupiah.

Hadiah dari Multi jackpot system www.dominoqiu.net

  1. Murni Kecil x 50 harga jackpot yang anda beli.
      (contoh:anda membeli 1000 maka:1000 X 50 = 50.000)
  2. Murni Besar x 50 harga jackpot yang anda beli
      (contoh:anda membeli 1000 maka:1000 X 50 = 50.000)
  3. BALAK x 100 harga jackpot yang anda beli
      (contoh:anda membeli 1000 maka:1000 X 100 = 100.000)
  4. ENAM DEWA x 6666 harga jackpot yang anda beli
      (contoh:anda membeli 1000 maka:1000 X 6666 = 6.666.000)

Demikian adalah penjelasan dari Multi Jackpot www.dominoqiu.net terima kasih dan selamat bermain salam hoki dari kami

Domino Jackpot Winner

TOP ENAM DEWA
No.TanggalNamaPriceWin
130/04 20:51QQYATATmurni enam3,333,000
230/04 18:44T123Tmurni enam666,600
330/04 17:40X_BLACXmurni enam6,666,000
430/04 16:41SUPERSIX22murni enam3,333,000
530/04 13:3369IFF69murni enam6,666,000
TOP BALAK
No.TanggalNamaPriceWin
130/04 21:29TEMPEKTUObalak50,000
230/04 21:28CAPIE89balak100,000
330/04 21:26BLACK180balak50,000
430/04 21:25P4SHT3R95balak10,000
530/04 21:22MATOSbalak10,000
LATEST JACKPOT
No.TanggalNamaPriceWin
130/04 21:37OUNUR918murni kecil5,000
230/04 21:37MASMASTERmurni kecil25,000
330/04 21:36OLIV46murni kecil5,000
430/04 21:36SYNNZZmurni besar25,000
530/04 21:36MAUTAUYAmurni kecil25,000
630/04 21:36FLUSHWAE11murni besar5,000
730/04 21:36PULEN16murni besar50,000
830/04 21:35BRONETZmurni besar50,000
930/04 21:35BR4POmurni besar50,000
1030/04 21:34DUL46murni kecil25,000
1130/04 21:33GENTAR17murni kecil25,000
1230/04 21:33DFD43F4Emurni besar25,000
1330/04 21:33JETAK99murni kecil50,000
1430/04 21:32GT5ZPBPEV0murni kecil25,000
1530/04 21:32BARNAZmurni kecil50,000
1630/04 21:32UEFO8TEW0Zmurni kecil25,000
1730/04 21:31MIGSERmurni kecil5,000
1830/04 21:31KOMPIALAYmurni kecil50,000
1930/04 21:31NIDALmurni besar50,000
2030/04 21:30INA91murni kecil50,000
2130/04 21:30DODOEmurni kecil50,000
2230/04 21:30TUYULDPmurni besar5,000
2330/04 21:30ANCO033murni besar5,000
2430/04 21:29AAM099murni kecil50,000
2530/04 21:29TEMPEKTUObalak50,000
2630/04 21:29HAJITSSmurni besar50,000
2730/04 21:29ALXIZmurni kecil5,000
2830/04 21:29ANDRIHOKI1murni besar50,000
2930/04 21:28CAPIE89balak100,000
3030/04 21:28NGGOWBmurni besar50,000
3130/04 21:27AF79547Amurni kecil50,000
3230/04 21:26KCC23FGM3Fmurni kecil25,000
3330/04 21:26BIKUBIKUmurni besar50,000
3430/04 21:26BLACK180balak50,000
3530/04 21:26UG9999murni kecil25,000
3630/04 21:26BUDUU88murni besar5,000
3730/04 21:26TIGERMACAUmurni besar50,000
3830/04 21:25QVCZ66UA7Dmurni kecil50,000
3930/04 21:25YENG_48murni kecil25,000
4030/04 21:25CREXEXZmurni kecil50,000
4130/04 21:25P4SHT3R95balak10,000
4230/04 21:24GOZIN33murni besar50,000
4330/04 21:24WINTEPUCEKmurni kecil50,000
4430/04 21:24BOEDHY10murni kecil5,000
4530/04 21:24SHOLICHUmurni kecil5,000
4630/04 21:22BARNAZmurni besar50,000
4730/04 21:22MATOSbalak10,000
4830/04 21:22AHMADSAEFAbalak10,000
4930/04 21:21GIANT8murni besar25,000
5030/04 21:21BOCOR06murni kecil50,000

Ceme Multi Jackpot System

Jackpot dilihat dari gabungan kartu pemain dengan kartu bandar. Bandar harus membeli jackpot sebanyak jumlah player yang sedang duduk. Sebagai contoh bila terdapat 3 pemain duduk bermain, dan bandar memutuskan untuk membeli jackpot Rp 1.000, maka pada periode tersebut bandar akan membeli jackpot sebanyak 3xRp1.000 = Rp3.000.

Jackpot bukanlah suatu keharusan untuk dibeli, namun kami memberikan suatu fitur tambahan untuk member tercinta dari www.dominoqiu.net.

Terdapat tiga pilihan harga jackpot yang bisa anda beli yaitu :100,500 dan 1000 rupiah.

Hadiah dari Multi jackpot system www.dominoqiu.net

  1. Murni Kecil x 50 harga jackpot yang anda beli.
      (contoh:anda membeli 1000 maka:1000 X 50 = 50.000)
  2. Murni Besar x 50 harga jackpot yang anda beli
      (contoh:anda membeli 1000 maka:1000 X 50 = 50.000)
  3. BALAK x 200 harga jackpot yang anda beli
      (contoh:anda membeli 1000 maka:1000 X 200 = 200.000)
  4. ENAM DEWA x 6666 harga jackpot yang anda beli
      (contoh:anda membeli 1000 maka:1000 X 6666 = 6.666.000)

Demikian adalah penjelasan dari Multi Jackpot www.dominoqiu.net terima kasih dan selamat bermain salam hoki dari kami

Ceme Jackpot Winner

TOP ENAM DEWA
No.TanggalNamaPriceWin
130/04 21:29WIN9696murni enam6,666,000
230/04 21:22TIO09murni enam3,333,000
330/04 21:11AJIS12murni enam666,600
430/04 21:091007murni enam6,666,000
530/04 21:09N_M44Xmurni enam3,333,000
TOP BALAK
No.TanggalNamaPriceWin
130/04 21:37WIN9696balak200,000
230/04 21:36QQHANUR28balak200,000
330/04 21:36SURODADU07balak100,000
430/04 21:35OKTOBELLbalak200,000
530/04 21:34HESENbalak200,000
LATEST JACKPOT
No.TanggalNamaPriceWin
130/04 21:37WIN9696balak200,000
230/04 21:36CAMER73murni kecil25,000
330/04 21:36QQHANUR28balak200,000
430/04 21:36NINOBETAmurni kecil5,000
530/04 21:36RAFEL123murni besar25,000
630/04 21:36PANTE521murni kecil5,000
730/04 21:36SURODADU07balak100,000
830/04 21:35PLECIPKmurni besar5,000
930/04 21:35AGGAU22murni kecil50,000
1030/04 21:35POSENGmurni besar25,000
1130/04 21:35TEUNANAONmurni kecil50,000
1230/04 21:35OKTOBELLbalak200,000
1330/04 21:34SINGAGAUNGmurni kecil25,000
1430/04 21:34EKINOFRIImurni kecil25,000
1530/04 21:34FFSEZROG19murni kecil5,000
1630/04 21:34LEOBOY99murni kecil50,000
1730/04 21:34VEGA26murni kecil50,000
1830/04 21:34CIPTOO0000murni kecil25,000
1930/04 21:34PHAIUHCO62murni kecil50,000
2030/04 21:34EDOPEPE24murni kecil5,000
2130/04 21:34KEHEDSIA89murni kecil25,000
2230/04 21:34HESENbalak200,000
2330/04 21:34RJOSALMAN2balak100,000
2430/04 21:34RIBUANCUANmurni besar50,000
2530/04 21:34KANCRA92murni kecil25,000
2630/04 21:34HUGET87murni kecil25,000
2730/04 21:33ASSSBLEHbalak200,000
2830/04 21:33IGOKAH1balak20,000
2930/04 21:33MBAHNURmurni kecil50,000
3030/04 21:33A4237EF0balak100,000
3130/04 21:33LANMEZmurni besar5,000
3230/04 21:33HESENmurni kecil50,000
3330/04 21:33AWAK9murni kecil25,000
3430/04 21:33PLECIPKbalak20,000
3530/04 21:33MONANG04murni besar25,000
3630/04 21:33DN4DARI3LKUDILmurni kecil25,000
3730/04 21:33LEOBOY99balak200,000
3830/04 21:33V1AN899murni kecil50,000
3930/04 21:33T4DZH1T4Rmurni kecil50,000
4030/04 21:33ZBR22balak100,000
4130/04 21:33AAHAH123murni kecil5,000
4230/04 21:32MARSHA990murni kecil5,000
4330/04 21:32DN4DARI3LKUDILmurni besar25,000
4430/04 21:32DN4DARI3LKUDILmurni besar25,000
4530/04 21:32FAIRPLAY01murni besar5,000
4630/04 21:32MAXWA77murni kecil50,000
4730/04 21:32SLFR96GH7Sbalak100,000
4830/04 21:32VEGA26murni kecil50,000
4930/04 21:32NAZUYA1murni kecil25,000
5030/04 21:32LAIKERZ1balak200,000